This is the latest recevied weather packets stored in our database for station/object KD8DNS. If no packets are shown the sender has not sent any weather packets the latest 10 day(s).
| Time | Temp. | Humidity | Pressure | Rain* | Wind** | Luminosity | Snow |
|---|---|---|---|---|---|---|---|
| 1788544732 | 33.89° C | 57% | 1018.5 hPa | 0 mm | - | 140 W/m² | - |
| 1788544430 | 34.44° C | 56% | 1018.5 hPa | 0 mm | - | 138 W/m² | - |
| 1788544125 | 35° C | 55% | 1018.7 hPa | 0 mm | - | 94 W/m² | - |
| 1788543821 | 35° C | 57% | 1018.6 hPa | 0 mm | - | 190 W/m² | - |
| 1788543517 | 34.44° C | 55% | 1018.6 hPa | 0 mm | - | 721 W/m² | - |
| 1788543212 | 35° C | 54% | 1018.7 hPa | 0 mm | - | 203 W/m² | - |
| 1788542908 | 35.56° C | 56% | 1018.8 hPa | 0 mm | - | 164 W/m² | - |
| 1788542607 | 35° C | 55% | 1018.7 hPa | 0 mm | - | 667 W/m² | - |
| 1788542302 | 35.56° C | 55% | 1019 hPa | 0 mm | - | 536 W/m² | - |
| 1788541998 | 35.56° C | 54% | 1018.9 hPa | 0 mm | - | 145 W/m² | - |
| 1788541694 | 35.56° C | 56% | 1018.9 hPa | 0 mm | - | 621 W/m² | - |
| 1788541389 | 35.56° C | 54% | 1018.9 hPa | 0 mm | - | 649 W/m² | - |
| 1788541089 | 35.56° C | 54% | 1018.9 hPa | 0 mm | - | 665 W/m² | - |
| 1788540788 | 35° C | 54% | 1018.9 hPa | 0 mm | - | 655 W/m² | - |
| 1788540483 | 35° C | 56% | 1019 hPa | 0 mm | - | 620 W/m² | - |
| 1788540178 | 35° C | 56% | 1019.2 hPa | 0 mm | - | 559 W/m² | - |
| 1788539874 | 35° C | 56% | 1019 hPa | 0 mm | - | 552 W/m² | - |
| 1788539569 | 34.44° C | 58% | 1019.1 hPa | 0 mm | - | 588 W/m² | - |
| 1788539269 | 33.89° C | 56% | 1019 hPa | 0 mm | - | 604 W/m² | - |
| 1788538963 | 33.89° C | 57% | 1019.2 hPa | 0 mm | - | 601 W/m² | - |
| 1788538659 | 34.44° C | 57% | 1019.3 hPa | 0 mm | - | 553 W/m² | - |
| 1788538358 | 33.89° C | 60% | 1019.2 hPa | 0 mm | - | 573 W/m² | - |
| 1788538054 | 33.33° C | 60% | 1019.3 hPa | 0 mm | - | 570 W/m² | - |
| 1788537750 | 32.78° C | 61% | 1019.1 hPa | 0 mm | - | 582 W/m² | - |
| 1788537449 | 32.78° C | 59% | 1019.3 hPa | 0 mm | - | 179 W/m² | - |
* Rain latest hour (hover to see other rain measurements)
** Current wind speed in m/s (hover to see current wind gust speed)